Time,TemperatureF,DewpointF,PressureIn,WindDirection,WindDirectionDegrees,WindSpeedMPH,WindSpeedGustMPH,Humidity,HourlyPrecipIn,Conditions,Clouds,dailyrainin,SoftwareType,DateUTC
2013-03-20 00:12:00,58.1,35.1,29.87,WNW,292,0.0,-999.0,42,-99.99,,,0.00,Acu-Link.com,2013-03-20 06:12:00,
2013-03-20 00:27:00,57.7,35.4,29.87,WNW,292,0.0,-999.0,43,-99.99,,,0.00,Acu-Link.com,2013-03-20 06:27:00,
2013-03-20 00:43:00,57.2,35.5,29.88,WNW,292,0.0,-999.0,44,-99.99,,,0.00,Acu-Link.com,2013-03-20 06:43:00,
2013-03-20 00:58:00,56.8,35.7,29.89,WNW,292,0.0,-999.0,45,-99.99,,,0.00,Acu-Link.com,2013-03-20 06:58:00,
2013-03-20 01:13:00,56.3,36.3,29.90,WNW,292,0.0,-999.0,47,-99.99,,,0.00,Acu-Link.com,2013-03-20 07:13:00,
2013-03-20 01:28:00,55.9,37.0,29.91,WNW,292,0.0,-999.0,49,-99.99,,,0.00,Acu-Link.com,2013-03-20 07:28:00,
2013-03-20 01:44:00,55.4,37.1,29.91,WNW,292,0.0,-999.0,50,-99.99,,,0.00,Acu-Link.com,2013-03-20 07:44:00,
2013-03-20 01:59:00,54.9,37.1,29.92,WNW,292,0.0,-999.0,51,-99.99,,,0.00,Acu-Link.com,2013-03-20 07:59:00,
2013-03-20 02:16:00,54.9,37.1,29.92,WNW,292,0.0,-999.0,51,-99.99,,,0.00,Acu-Link.com,2013-03-20 08:16:00,
2013-03-20 02:36:00,54.9,37.1,29.92,WNW,292,0.0,-999.0,51,-99.99,,,0.00,Acu-Link.com,2013-03-20 08:36:00,
2013-03-20 02:52:00,54.1,36.9,29.90,WNW,292,0.0,-999.0,52,-99.99,,,0.00,Acu-Link.com,2013-03-20 08:52:00,
2013-03-20 03:07:00,53.8,37.1,29.90,WNW,292,0.0,-999.0,53,-99.99,,,0.00,Acu-Link.com,2013-03-20 09:07:00,
2013-03-20 03:22:00,53.4,37.2,29.90,WNW,292,0.0,-999.0,54,-99.99,,,0.00,Acu-Link.com,2013-03-20 09:22:00,
2013-03-20 03:38:00,53.2,37.0,29.90,WNW,292,0.0,-999.0,54,-99.99,,,0.00,Acu-Link.com,2013-03-20 09:38:00,
2013-03-20 03:53:00,53.1,36.9,29.91,WNW,292,0.0,-999.0,54,-99.99,,,0.00,Acu-Link.com,2013-03-20 09:53:00,
2013-03-20 04:08:00,52.9,36.7,29.91,WNW,292,0.0,-999.0,54,-99.99,,,0.00,Acu-Link.com,2013-03-20 10:08:00,
2013-03-20 04:24:00,52.7,37.0,29.91,WNW,292,0.0,-999.0,55,-99.99,,,0.00,Acu-Link.com,2013-03-20 10:24:00,
2013-03-20 04:39:00,52.5,36.8,29.92,WNW,292,0.0,-999.0,55,-99.99,,,0.00,Acu-Link.com,2013-03-20 10:39:00,
2013-03-20 04:54:00,52.3,36.6,29.93,WNW,292,0.0,-999.0,55,-99.99,,,0.00,Acu-Link.com,2013-03-20 10:54:00,
2013-03-20 05:09:00,52.0,36.8,29.94,WNW,292,0.0,-999.0,56,-99.99,,,0.00,Acu-Link.com,2013-03-20 11:09:00,
2013-03-20 05:25:00,51.8,36.6,29.96,WNW,292,0.0,-999.0,56,-99.99,,,0.00,Acu-Link.com,2013-03-20 11:25:00,
2013-03-20 05:40:00,51.4,36.2,29.97,WNW,292,0.0,-999.0,56,-99.99,,,0.00,Acu-Link.com,2013-03-20 11:40:00,
2013-03-20 05:55:00,50.9,36.2,29.98,WNW,292,0.0,-999.0,57,-99.99,,,0.00,Acu-Link.com,2013-03-20 11:55:00,
2013-03-20 06:10:00,50.5,36.7,29.98,WNW,292,0.0,-999.0,59,-99.99,,,0.00,Acu-Link.com,2013-03-20 12:10:00,
2013-03-20 06:41:00,50.0,37.5,30.00,WNW,292,0.0,-999.0,62,-99.99,,,0.00,Acu-Link.com,2013-03-20 12:41:00,
2013-03-20 06:56:00,50.0,38.3,30.00,WNW,292,0.0,-999.0,64,-99.99,,,0.00,Acu-Link.com,2013-03-20 12:56:00,
2013-03-20 07:11:00,50.0,38.3,30.01,WNW,292,0.0,-999.0,64,-99.99,,,0.00,Acu-Link.com,2013-03-20 13:11:00,
2013-03-20 07:27:00,50.0,38.7,30.02,WNW,292,0.0,-999.0,65,-99.99,,,0.00,Acu-Link.com,2013-03-20 13:27:00,
2013-03-20 07:42:00,50.5,38.8,30.03,WNW,292,1.1,-999.0,64,-99.99,,,0.00,Acu-Link.com,2013-03-20 13:42:00,
2013-03-20 07:57:00,51.1,38.5,30.03,WNW,292,0.0,-999.0,62,-99.99,,,0.00,Acu-Link.com,2013-03-20 13:57:00,
2013-03-20 08:13:00,51.8,37.9,30.04,WNW,292,0.0,-999.0,59,-99.99,,,0.00,Acu-Link.com,2013-03-20 14:13:00,
2013-03-20 08:28:00,52.5,38.2,30.04,WNW,292,0.0,-999.0,58,-99.99,,,0.00,Acu-Link.com,2013-03-20 14:28:00,
2013-03-20 08:43:00,53.2,37.5,30.04,WNW,292,0.0,-999.0,55,-99.99,,,0.00,Acu-Link.com,2013-03-20 14:43:00,
2013-03-20 08:59:00,54.0,37.3,30.05,WNW,292,0.0,-999.0,53,-99.99,,,0.00,Acu-Link.com,2013-03-20 14:59:00,
2013-03-20 09:14:00,54.9,37.6,30.05,WNW,292,0.0,-999.0,52,-99.99,,,0.00,Acu-Link.com,2013-03-20 15:14:00,
2013-03-20 09:29:00,55.8,37.9,30.05,WNW,292,0.0,-999.0,51,-99.99,,,0.00,Acu-Link.com,2013-03-20 15:29:00,
2013-03-20 09:44:00,56.5,37.0,30.05,WNW,292,0.0,-999.0,48,-99.99,,,0.00,Acu-Link.com,2013-03-20 15:44:00,
2013-03-20 10:00:00,57.4,37.3,30.04,WNW,292,0.0,-999.0,47,-99.99,,,0.00,Acu-Link.com,2013-03-20 16:00:00,
2013-03-20 10:15:00,58.6,37.9,30.04,WNW,292,0.0,-999.0,46,-99.99,,,0.00,Acu-Link.com,2013-03-20 16:15:00,
2013-03-20 10:30:00,59.7,38.3,30.04,WNW,292,0.0,-999.0,45,-99.99,,,0.00,Acu-Link.com,2013-03-20 16:30:00,
2013-03-20 10:45:00,60.6,38.0,30.03,WNW,292,0.0,-999.0,43,-99.99,,,0.00,Acu-Link.com,2013-03-20 16:45:00,
2013-03-20 11:00:00,61.9,37.9,30.03,WNW,292,0.0,-999.0,41,-99.99,,,0.00,Acu-Link.com,2013-03-20 17:00:00,
2013-03-20 11:15:00,63.0,37.0,30.02,WNW,292,1.7,-999.0,38,-99.99,,,0.00,Acu-Link.com,2013-03-20 17:15:00,
2013-03-20 11:31:00,64.2,35.2,30.02,WNW,292,0.0,-999.0,34,-99.99,,,0.00,Acu-Link.com,2013-03-20 17:31:00,
2013-03-20 11:46:00,64.8,32.6,30.02,WNW,292,0.0,-999.0,30,-99.99,,,0.00,Acu-Link.com,2013-03-20 17:46:00,
2013-03-20 12:01:00,65.5,30.6,30.01,WNW,292,1.1,-999.0,27,-99.99,,,0.00,Acu-Link.com,2013-03-20 18:01:00,
2013-03-20 12:17:00,66.0,29.2,30.00,WNW,292,0.0,-999.0,25,-99.99,,,0.00,Acu-Link.com,2013-03-20 18:17:00,
2013-03-20 12:32:00,66.7,28.8,30.00,WNW,292,0.0,-999.0,24,-99.99,,,0.00,Acu-Link.com,2013-03-20 18:32:00,
2013-03-20 12:47:00,67.3,27.2,29.98,WNW,292,0.0,-999.0,22,-99.99,,,0.00,Acu-Link.com,2013-03-20 18:47:00,
2013-03-20 13:03:00,68.0,27.7,29.97,WNW,292,0.0,-999.0,22,-99.99,,,0.00,Acu-Link.com,2013-03-20 19:03:00,
2013-03-20 13:18:00,68.7,29.4,29.96,WNW,292,1.1,-999.0,23,-99.99,,,0.00,Acu-Link.com,2013-03-20 19:18:00,
2013-03-20 13:33:00,69.4,30.0,29.95,WNW,292,1.1,-999.0,23,-99.99,,,0.00,Acu-Link.com,2013-03-20 19:33:00,
2013-03-20 13:49:00,70.2,31.7,29.93,WNW,292,0.0,-999.0,24,-99.99,,,0.00,Acu-Link.com,2013-03-20 19:49:00,
2013-03-20 14:04:00,70.5,32.0,29.92,WNW,292,0.0,-999.0,24,-99.99,,,0.00,Acu-Link.com,2013-03-20 20:04:00,
2013-03-20 14:19:00,70.9,31.3,29.91,WNW,292,1.7,-999.0,23,-99.99,,,0.00,Acu-Link.com,2013-03-20 20:19:00,
2013-03-20 14:35:00,71.4,32.7,29.91,WNW,292,0.0,-999.0,24,-99.99,,,0.00,Acu-Link.com,2013-03-20 20:35:00,
2013-03-20 14:50:00,75.9,31.9,29.90,WNW,292,0.0,-999.0,20,-99.99,,,0.00,Acu-Link.com,2013-03-20 20:50:00,
2013-03-20 15:05:00,75.4,31.5,29.89,WNW,292,0.0,-999.0,20,-99.99,,,0.00,Acu-Link.com,2013-03-20 21:05:00,
2013-03-20 15:20:00,75.7,31.8,29.88,WNW,292,2.2,-999.0,20,-99.99,,,0.00,Acu-Link.com,2013-03-20 21:20:00,
2013-03-20 15:36:00,77.7,32.1,29.87,WNW,292,0.0,-999.0,19,-99.99,,,0.00,Acu-Link.com,2013-03-20 21:36:00,
2013-03-20 15:51:00,78.8,31.7,29.87,WNW,292,0.0,-999.0,18,-99.99,,,0.00,Acu-Link.com,2013-03-20 21:51:00,
2013-03-20 16:06:00,73.2,29.7,29.86,WNW,292,0.0,-999.0,20,-99.99,,,0.00,Acu-Link.com,2013-03-20 22:06:00,
2013-03-20 16:22:00,74.3,30.6,29.85,WNW,292,0.0,-999.0,20,-99.99,,,0.00,Acu-Link.com,2013-03-20 22:22:00,
2013-03-20 16:37:00,72.3,29.0,29.84,WNW,292,0.0,-999.0,20,-99.99,,,0.00,Acu-Link.com,2013-03-20 22:37:00,
2013-03-20 16:52:00,75.6,29.1,29.84,WNW,292,2.2,-999.0,18,-99.99,,,0.00,Acu-Link.com,2013-03-20 22:52:00,
2013-03-20 17:08:00,72.1,28.8,29.84,WNW,292,0.0,-999.0,20,-99.99,,,0.00,Acu-Link.com,2013-03-20 23:08:00,
2013-03-20 17:23:00,70.7,28.9,29.82,WNW,292,0.0,-999.0,21,-99.99,,,0.00,Acu-Link.com,2013-03-20 23:23:00,
2013-03-20 17:38:00,70.9,29.0,29.82,WNW,292,0.0,-999.0,21,-99.99,,,0.00,Acu-Link.com,2013-03-20 23:38:00,
2013-03-20 17:54:00,69.8,28.1,29.82,WNW,292,0.0,-999.0,21,-99.99,,,0.00,Acu-Link.com,2013-03-20 23:54:00,
2013-03-20 18:09:00,68.5,28.2,29.82,WNW,292,0.0,-999.0,22,-99.99,,,0.00,Acu-Link.com,2013-03-21 00:09:00,
2013-03-20 18:24:00,67.5,28.4,29.81,WNW,292,0.0,-999.0,23,-99.99,,,0.00,Acu-Link.com,2013-03-21 00:24:00,
2013-03-20 18:40:00,66.4,29.5,29.82,WNW,292,0.0,-999.0,25,-99.99,,,0.00,Acu-Link.com,2013-03-21 00:40:00,
2013-03-20 18:55:00,65.3,29.5,29.81,WNW,292,0.0,-999.0,26,-99.99,,,0.00,Acu-Link.com,2013-03-21 00:55:00,
2013-03-20 19:10:00,64.0,29.4,29.81,WNW,292,0.0,-999.0,27,-99.99,,,0.00,Acu-Link.com,2013-03-21 01:10:00,
2013-03-20 19:25:00,63.0,30.2,29.81,WNW,292,0.0,-999.0,29,-99.99,,,0.00,Acu-Link.com,2013-03-21 01:25:00,
2013-03-20 19:56:00,61.3,31.2,29.80,WNW,292,0.0,-999.0,32,-99.99,,,0.00,Acu-Link.com,2013-03-21 01:56:00,
2013-03-20 20:11:00,60.6,32.1,29.80,WNW,292,0.0,-999.0,34,-99.99,,,0.00,Acu-Link.com,2013-03-21 02:11:00,
2013-03-20 20:27:00,60.1,31.6,29.79,WNW,292,0.0,-999.0,34,-99.99,,,0.00,Acu-Link.com,2013-03-21 02:27:00,
2013-03-20 20:42:00,59.7,31.3,29.79,WNW,292,0.0,-999.0,34,-99.99,,,0.00,Acu-Link.com,2013-03-21 02:42:00,
2013-03-20 20:57:00,59.2,31.6,29.79,WNW,292,0.0,-999.0,35,-99.99,,,0.00,Acu-Link.com,2013-03-21 02:57:00,
2013-03-20 21:13:00,58.6,32.4,29.79,WNW,292,0.0,-999.0,37,-99.99,,,0.00,Acu-Link.com,2013-03-21 03:13:00,
2013-03-20 21:28:00,58.1,33.3,29.79,WNW,292,0.0,-999.0,39,-99.99,,,0.00,Acu-Link.com,2013-03-21 03:28:00,
2013-03-20 21:43:00,57.9,32.5,29.77,WNW,292,0.0,-999.0,38,-99.99,,,0.00,Acu-Link.com,2013-03-21 03:43:00,
2013-03-20 21:59:00,57.6,31.5,29.77,WNW,292,0.0,-999.0,37,-99.99,,,0.00,Acu-Link.com,2013-03-21 03:59:00,
2013-03-20 22:14:00,57.4,31.3,29.77,WNW,292,0.0,-999.0,37,-99.99,,,0.00,Acu-Link.com,2013-03-21 04:14:00,
2013-03-20 22:29:00,57.6,31.5,29.77,WNW,292,0.0,-999.0,37,-99.99,,,0.00,Acu-Link.com,2013-03-21 04:29:00,
2013-03-20 22:45:00,57.6,31.5,29.76,WNW,292,0.0,-999.0,37,-99.99,,,0.00,Acu-Link.com,2013-03-21 04:45:00,
2013-03-20 23:00:00,57.6,32.2,29.76,WNW,292,0.0,-999.0,38,-99.99,,,0.00,Acu-Link.com,2013-03-21 05:00:00,
2013-03-20 23:15:00,57.6,32.2,29.76,WNW,292,0.0,-999.0,38,-99.99,,,0.00,Acu-Link.com,2013-03-21 05:15:00,
2013-03-20 23:30:00,57.4,32.0,29.76,WNW,292,0.0,-999.0,38,-99.99,,,0.00,Acu-Link.com,2013-03-21 05:30:00,
2013-03-20 23:45:00,57.4,32.0,29.76,WNW,292,0.0,-999.0,38,-99.99,,,0.00,Acu-Link.com,2013-03-21 05:45:00,